Weather History for KCAV - March, 2014

Change the Weather History Date:

Saturday, March 8, 2014

  Actual Average Record
Temperature  
Mean Temperature 16 °F -  
Max Temperature 24 °F 36 °F 73 °F (1987)
Min Temperature 8 °F 17 °F -7 °F (1969)
Degree Days  
Heating Degree Days 49    
Moisture  
Dew Point 15 °F    
Average Humidity 83    
Maximum Humidity 92    
Minimum Humidity 74    
Precipitation  
Precipitation 0.00 in - - ()
Sea Level Pressure  
Sea Level Pressure 30.25 in    
Wind  
Wind Speed 12 mph (NNW)    
Max Wind Speed 16 mph    
Max Gust Speed 22 mph    
Visibility 10 miles    
Events      
Averages and records for this station are not official NWS values.
T = Trace of Precipitation, MM = Missing Value Source: NWS Daily Summary

Daily Weather History Graph

Daily Weather History Graph

Search for Another Location

Airport or City:

Trip Planner

Search our weather history database for the weather conditions in past years. The results will help you decide how hot, cold, wet, or windy it might be!

Date:

Astronomy

Mar. 08, 2014 Rise Set
Actual Time 6:39 AM CST 6:13 PM CST
Civil Twilight 6:10 AM CST 6:41 PM CST
Nautical Twilight 5:38 AM CST 7:14 PM CST
Astronomical Twilight 5:05 AM CST 7:47 PM CST
Moon 11:12 AM CST (3/8) 1:20 AM CST (3/8)
Length of Visible Light 12h 30m
Length of Day
11h 34m
First Quarter, 52% of the Moon is Illuminated
Mar 8
First Quarter
Mar 16
Full
Mar 23
Last Quarter
Mar 30
New
Apr 7
First Quarter

Hourly Weather History & Observations

Time (CST) Temp. Windchill Dew Point Humidity Pressure Visibility Wind Dir Wind Speed Gust Speed Precip Events Conditions
12:15 AM 21.2 °F 7.8 °F 17.6 °F 86% 30.14 in 10.0 mi NNW 15.0 mph - N/A   Overcast
12:35 AM 21.2 °F 7.8 °F 17.6 °F 86% 30.14 in 10.0 mi NNW 15.0 mph 21.9 mph N/A   Overcast
12:55 AM 21.2 °F 7.8 °F 17.6 °F 86% 30.15 in 10.0 mi NNW 15.0 mph 21.9 mph N/A   Overcast
1:15 AM 21.2 °F 7.3 °F 17.6 °F 86% 30.15 in 10.0 mi NNW 16.1 mph - N/A   Overcast
1:35 AM 21.2 °F 7.3 °F 17.6 °F 86% 30.16 in 10.0 mi NNW 16.1 mph 21.9 mph N/A   Overcast
1:55 AM 21.2 °F 7.8 °F 17.6 °F 86% 30.17 in 10.0 mi NNW 15.0 mph - N/A   Overcast
2:15 AM 21.2 °F 7.8 °F 17.6 °F 86% 30.17 in 10.0 mi NNW 15.0 mph - N/A   Overcast
2:35 AM 21.2 °F 8.3 °F 17.6 °F 86% 30.17 in 10.0 mi NNW 13.8 mph - N/A   Overcast
2:55 AM 21.2 °F 8.3 °F 17.6 °F 86% 30.16 in 10.0 mi NNW 13.8 mph 19.6 mph N/A   Overcast
3:15 AM 21.2 °F 8.3 °F 17.6 °F 86% 30.16 in 10.0 mi NNW 13.8 mph - N/A   Overcast
3:35 AM 21.2 °F 9.5 °F 17.6 °F 86% 30.16 in 10.0 mi North 11.5 mph - N/A   Overcast
3:55 AM 21.2 °F 9.5 °F 17.6 °F 86% 30.17 in 10.0 mi North 11.5 mph - N/A   Overcast
4:15 AM 21.2 °F 8.9 °F 15.8 °F 80% 30.18 in 10.0 mi NNW 12.7 mph - N/A   Overcast
4:35 AM 19.4 °F 7.2 °F 15.8 °F 86% 30.19 in 10.0 mi North 11.5 mph 17.3 mph N/A   Overcast
4:55 AM 19.4 °F 6.6 °F 15.8 °F 86% 30.19 in 10.0 mi North 12.7 mph 19.6 mph N/A   Overcast
5:15 AM 19.4 °F 7.2 °F 15.8 °F 86% 30.20 in 10.0 mi North 11.5 mph 17.3 mph N/A   Overcast
5:35 AM 19.4 °F 6.0 °F 15.8 °F 86% 30.22 in 10.0 mi NNW 13.8 mph - N/A   Overcast
5:55 AM 19.4 °F 6.6 °F 15.8 °F 86% 30.23 in 10.0 mi NNW 12.7 mph 19.6 mph N/A   Overcast
6:15 AM 17.6 °F 4.3 °F 14.0 °F 86% 30.23 in 10.0 mi NNW 12.7 mph - N/A   Overcast
6:35 AM 17.6 °F 3.7 °F 14.0 °F 86% 30.23 in 10.0 mi North 13.8 mph - N/A   Overcast
6:55 AM 17.6 °F 5.0 °F 12.2 °F 79% 30.25 in 10.0 mi North 11.5 mph 18.4 mph N/A   Overcast
7:15 AM 15.8 °F 2.7 °F 12.2 °F 86% 30.25 in 10.0 mi NNW 11.5 mph - N/A   Overcast
7:35 AM 15.8 °F 2.7 °F 12.2 °F 86% 30.25 in 10.0 mi North 11.5 mph - N/A   Overcast
7:55 AM 15.8 °F 4.2 °F 10.4 °F 79% 30.26 in 10.0 mi NNW 9.2 mph - N/A   Overcast
8:15 AM 15.8 °F 3.4 °F 10.4 °F 79% 30.26 in 10.0 mi NNW 10.4 mph - N/A   Scattered Clouds
8:35 AM 15.8 °F 5.1 °F 10.4 °F 79% 30.27 in 10.0 mi NNW 8.1 mph - N/A   Clear
8:55 AM 15.8 °F 2.7 °F 12.2 °F 86% 30.27 in 10.0 mi North 11.5 mph - N/A   Clear
9:15 AM 15.8 °F 2.7 °F 12.2 °F 86% 30.28 in 10.0 mi NNW 11.5 mph 18.4 mph N/A   Clear
9:35 AM 17.6 °F 4.3 °F 12.2 °F 79% 30.29 in 10.0 mi North 12.7 mph - N/A   Clear
9:55 AM 17.6 °F 5.0 °F 12.2 °F 79% 30.29 in 10.0 mi North 11.5 mph - N/A   Clear
10:15 AM 19.4 °F 7.9 °F 14.0 °F 80% 30.29 in 10.0 mi North 10.4 mph - N/A   Clear
10:35 AM 19.4 °F 7.9 °F 14.0 °F 80% 30.30 in 10.0 mi North 10.4 mph - N/A   Clear
10:55 AM 21.2 °F 9.5 °F 15.8 °F 80% 30.30 in 10.0 mi North 11.5 mph - N/A   Clear
11:15 AM 23.0 °F 12.4 °F 17.6 °F 80% 30.30 in 10.0 mi North 10.4 mph - N/A   Clear
11:35 AM 23.0 °F 11.7 °F 17.6 °F 80% 30.31 in 10.0 mi North 11.5 mph - N/A   Clear
11:55 AM 23.0 °F 11.7 °F 17.6 °F 80% 30.30 in 10.0 mi NNW 11.5 mph - N/A   Clear
12:15 PM 23.0 °F 13.1 °F 19.4 °F 86% 30.30 in 10.0 mi NNW 9.2 mph - N/A   Clear
12:35 PM 23.0 °F 12.4 °F 19.4 °F 86% 30.30 in 10.0 mi NNW 10.4 mph - N/A   Clear
12:55 PM 23.0 °F 11.7 °F 19.4 °F 86% 30.29 in 10.0 mi NW 11.5 mph - N/A   Clear
1:15 PM 24.8 °F 14.0 °F 19.4 °F 80% 30.28 in 10.0 mi NW 11.5 mph - N/A   Clear
1:35 PM 24.8 °F 14.6 °F 19.4 °F 80% 30.28 in 10.0 mi NW 10.4 mph - N/A   Clear
1:55 PM 23.0 °F 13.1 °F 19.4 °F 86% 30.28 in 10.0 mi NNW 9.2 mph - N/A   Clear
2:15 PM 23.0 °F 12.4 °F 19.4 °F 86% 30.28 in - NNW 10.4 mph - N/A   Clear
2:35 PM 23.0 °F 12.4 °F 19.4 °F 86% 30.29 in 10.0 mi NNW 10.4 mph - N/A   Clear
2:55 PM 23.0 °F 11.7 °F 19.4 °F 86% 30.29 in 10.0 mi NW 11.5 mph - N/A   Clear
3:15 PM 24.8 °F 14.6 °F 19.4 °F 80% 30.28 in 10.0 mi NNW 10.4 mph - N/A   Clear
3:35 PM 24.8 °F 16.1 °F 17.6 °F 74% 30.28 in 10.0 mi NNW 8.1 mph - N/A   Clear
3:55 PM 24.8 °F 14.6 °F 17.6 °F 74% 30.28 in 10.0 mi NNW 10.4 mph - N/A   Clear
4:15 PM 24.8 °F 13.4 °F 17.6 °F 74% 30.28 in 10.0 mi NNW 12.7 mph - N/A   Clear
4:35 PM 24.8 °F 15.3 °F 17.6 °F 74% 30.29 in 10.0 mi NNW 9.2 mph - N/A   Clear
4:55 PM 23.0 °F 11.7 °F 15.8 °F 74% 30.29 in 10.0 mi NNW 11.5 mph - N/A   Scattered Clouds
5:15 PM 23.0 °F 11.1 °F 15.8 °F 74% 30.29 in 10.0 mi NNW 12.7 mph - N/A   Mostly Cloudy
5:35 PM 23.0 °F 13.9 °F 15.8 °F 74% 30.29 in 10.0 mi NNW 8.1 mph - N/A   Overcast
5:55 PM 23.0 °F 15.8 °F 17.6 °F 80% 30.28 in 10.0 mi NNW 5.8 mph - N/A   Overcast
6:15 PM 21.2 °F 12.6 °F 15.8 °F 80% 30.29 in 10.0 mi NNW 6.9 mph - N/A   Scattered Clouds
6:35 PM 21.2 °F 14.9 °F 14.0 °F 74% 30.29 in 10.0 mi NW 4.6 mph - N/A   Partly Cloudy
6:55 PM 19.4 °F 12.8 °F 14.0 °F 80% 30.29 in 10.0 mi NNW 4.6 mph - N/A   Clear
7:15 PM 17.6 °F - 14.0 °F 86% 30.29 in 10.0 mi Calm Calm - N/A   Clear
7:35 PM 15.8 °F - 12.2 °F 86% 30.28 in 10.0 mi Calm Calm - N/A   Clear
7:55 PM 14.0 °F - 10.4 °F 86% 30.28 in 10.0 mi Calm Calm - N/A   Clear
8:15 PM 12.2 °F - 6.8 °F 79% 30.28 in 10.0 mi Calm Calm - N/A   Clear
8:35 PM 12.2 °F - 8.6 °F 85% 30.28 in 10.0 mi Calm Calm - N/A   Clear
8:55 PM 10.4 °F 2.2 °F 8.6 °F 92% 30.27 in 10.0 mi South 4.6 mph - N/A   Clear
9:15 PM 10.4 °F 4.0 °F 8.6 °F 92% 30.27 in 10.0 mi South 3.5 mph - N/A   Clear
9:35 PM 10.4 °F -0.4 °F 8.6 °F 92% 30.27 in 10.0 mi South 6.9 mph - N/A   Clear
9:55 PM 10.4 °F 2.2 °F 8.6 °F 92% 30.28 in 10.0 mi South 4.6 mph - N/A   Clear
10:15 PM 10.4 °F 2.2 °F 6.8 °F 85% 30.28 in 9.0 mi South 4.6 mph - N/A   Clear
10:35 PM 8.6 °F -1.3 °F 6.8 °F 92% 30.27 in 10.0 mi South 5.8 mph - N/A   Clear
10:55 PM 10.4 °F -2.4 °F 6.8 °F 85% 30.26 in 9.0 mi SSE 9.2 mph - N/A   Clear
11:15 PM 10.4 °F -1.5 °F 6.8 °F 85% 30.25 in 10.0 mi South 8.1 mph - N/A   Clear
11:35 PM 10.4 °F -1.5 °F 6.8 °F 85% 30.24 in 10.0 mi South 8.1 mph - N/A   Clear
11:55 PM 10.4 °F -1.5 °F 6.8 °F 85% 30.24 in 10.0 mi South 8.1 mph - N/A   Clear